TimeEST,TemperatureF,Dew PointF,Humidity,Sea Level PressureIn,VisibilityMPH,Wind Direction,Wind SpeedMPH,Gust SpeedMPH,PrecipitationIn,Events,Conditions,WindDirDegrees,DateUTC
12:51 AM,35.1,26.1,70,29.83,10.0,WNW,8.1,-,N/A,,Overcast,290,2013-02-13 05:51:00
1:51 AM,33.1,24.1,70,29.81,10.0,WNW,4.6,-,N/A,,Partly Cloudy,300,2013-02-13 06:51:00
2:51 AM,32.0,21.0,64,29.81,10.0,WNW,11.5,-,N/A,,Clear,290,2013-02-13 07:51:00
3:51 AM,28.9,19.0,67,29.82,10.0,NW,4.6,-,N/A,,Clear,310,2013-02-13 08:51:00
4:51 AM,28.9,19.0,67,29.83,10.0,Variable,4.6,-,N/A,,Clear,0,2013-02-13 09:51:00
5:51 AM,28.0,19.0,69,29.83,10.0,NW,3.5,-,N/A,,Clear,310,2013-02-13 10:51:00
6:51 AM,25.0,18.0,75,29.84,10.0,WNW,5.8,-,N/A,,Clear,290,2013-02-13 11:51:00
7:51 AM,28.9,19.0,67,29.85,10.0,Calm,Calm,-,N/A,,Partly Cloudy,0,2013-02-13 12:51:00
8:51 AM,32.0,19.9,61,29.85,10.0,WNW,9.2,-,N/A,,Clear,300,2013-02-13 13:51:00
9:51 AM,34.0,19.9,56,29.84,10.0,NW,9.2,-,N/A,,Partly Cloudy,310,2013-02-13 14:51:00
10:51 AM,36.0,19.9,52,29.83,10.0,NW,9.2,-,N/A,,Clear,310,2013-02-13 15:51:00
11:51 AM,36.0,21.0,55,29.81,10.0,West,9.2,-,N/A,,Mostly Cloudy,280,2013-02-13 16:51:00
12:51 PM,37.0,21.0,52,29.80,10.0,NW,6.9,-,N/A,,Overcast,310,2013-02-13 17:51:00
1:51 PM,37.0,19.9,50,29.79,10.0,WNW,5.8,-,N/A,,Mostly Cloudy,290,2013-02-13 18:51:00
2:51 PM,37.9,19.9,48,29.77,10.0,Calm,Calm,-,N/A,,Overcast,0,2013-02-13 19:51:00
3:51 PM,39.0,18.0,43,29.76,10.0,Calm,Calm,-,N/A,,Mostly Cloudy,0,2013-02-13 20:51:00
4:51 PM,37.0,19.0,48,29.77,10.0,Calm,Calm,-,N/A,,Partly Cloudy,0,2013-02-13 21:51:00
5:51 PM,35.1,18.0,50,29.75,10.0,Calm,Calm,-,N/A,,Clear,0,2013-02-13 22:51:00
6:51 PM,26.1,19.9,78,29.75,10.0,Calm,Calm,-,N/A,,Clear,0,2013-02-13 23:51:00
7:51 PM,26.1,19.9,78,29.76,10.0,Calm,Calm,-,N/A,,Clear,0,2013-02-14 00:51:00
8:51 PM,25.0,19.9,81,29.77,10.0,Calm,Calm,-,N/A,,Clear,0,2013-02-14 01:51:00
9:51 PM,24.1,19.9,84,29.76,9.0,Calm,Calm,-,N/A,,Clear,0,2013-02-14 02:51:00
10:51 PM,26.1,19.9,78,29.75,10.0,Calm,Calm,-,N/A,,Mostly Cloudy,0,2013-02-14 03:51:00
11:51 PM,27.0,21.0,78,29.74,10.0,Calm,Calm,-,N/A,,Overcast,0,2013-02-14 04:51:00